Location: Esp�s Alto
(42.4476°N, 0.5876°E)
Time: 18:58:59
(UTC+00:00)

Cosmos 1980 - Pass Details

Date: 22 October 2019
Orbit: 840 x 846 km, 71.0° (Epoch: 22 November)

Event Time Altitude Azimuth Distance (km) Brightness Sun altitude
Exits shadow 04:33:22 34° 296° (WNW) 1,361 4.3 -20.0°
Maximum altitude 04:33:44 34° 304° (WNW) 1,353 4.3 -20.0°
Drops below altitude 10° 04:38:51 10° 8° (N) 2,465 6.2 -19.0°
Sets 04:41:32 0° 18° (NNE) 3,404 7.1 -18.5°
